Time,TemperatureF,DewpointF,PressureIn,WindDirection,WindDirectionDegrees,WindSpeedMPH,WindSpeedGustMPH,Humidity,HourlyPrecipIn,Conditions,Clouds,dailyrainin,SoftwareType,DateUTC
2013-10-22 00:14:00,57.0,53.0,30.00,SSW,206,0.0,-999.0,87,-99.99,,,-99.99,,2013-10-22 04:14:00,
2013-10-22 00:25:00,57.0,53.0,30.00,SSW,206,0.0,-999.0,88,-99.99,,,-99.99,,2013-10-22 04:25:00,
2013-10-22 00:43:00,58.0,54.0,30.00,South,189,0.0,-999.0,87,-99.99,,,-99.99,,2013-10-22 04:43:00,
2013-10-22 00:54:00,58.0,54.0,30.00,South,190,0.0,-999.0,87,-99.99,,,-99.99,,2013-10-22 04:54:00,
2013-10-22 01:13:00,58.0,54.0,30.01,SSW,202,0.0,-999.0,87,-99.99,,,-99.99,,2013-10-22 05:13:00,
2013-10-22 01:23:00,57.0,53.0,30.01,SSW,201,0.0,-999.0,88,-99.99,,,-99.99,,2013-10-22 05:23:00,
2013-10-22 01:43:00,58.0,54.0,30.01,SSE,159,0.0,-999.0,88,-99.99,,,-99.99,,2013-10-22 05:43:00,
2013-10-22 01:52:00,57.0,53.0,30.01,SW,221,0.0,-999.0,88,-99.99,,,-99.99,,2013-10-22 05:52:00,
2013-10-22 02:12:00,57.0,54.0,30.01,SW,221,0.0,-999.0,89,-99.99,,,-99.99,,2013-10-22 06:12:00,
2013-10-22 02:22:00,57.0,54.0,30.01,SW,221,0.0,-999.0,89,-99.99,,,-99.99,,2013-10-22 06:22:00,
2013-10-22 02:43:00,57.0,54.0,30.01,SW,221,0.0,-999.0,89,-99.99,,,-99.99,,2013-10-22 06:43:00,
2013-10-22 02:53:00,57.0,54.0,30.01,SW,221,0.0,-999.0,89,-99.99,,,-99.99,,2013-10-22 06:53:00,
2013-10-22 03:12:00,57.0,53.0,29.99,SW,221,0.0,-999.0,88,-99.99,,,-99.99,,2013-10-22 07:12:00,
2013-10-22 03:23:00,57.0,53.0,29.99,SW,221,0.0,-999.0,88,-99.99,,,-99.99,,2013-10-22 07:23:00,
2013-10-22 03:42:00,57.0,53.0,29.98,SW,221,0.0,-999.0,88,-99.99,,,-99.99,,2013-10-22 07:42:00,
2013-10-22 03:52:00,57.0,53.0,29.98,SW,222,0.0,-999.0,88,-99.99,,,-99.99,,2013-10-22 07:52:00,
2013-10-22 04:12:00,58.0,54.0,29.97,SW,222,0.0,-999.0,88,-99.99,,,-99.99,,2013-10-22 08:12:00,
2013-10-22 04:22:00,58.0,54.0,29.97,West,265,0.0,-999.0,88,-99.99,,,-99.99,,2013-10-22 08:22:00,
2013-10-22 04:42:00,58.0,54.0,29.96,WNW,301,0.0,-999.0,88,-99.99,,,-99.99,,2013-10-22 08:42:00,
2013-10-22 04:52:00,58.0,54.0,29.96,WNW,302,0.0,-999.0,88,-99.99,,,-99.99,,2013-10-22 08:52:00,
2013-10-22 05:11:00,57.0,53.0,29.96,WNW,301,0.0,-999.0,88,-99.99,,,-99.99,,2013-10-22 09:11:00,
2013-10-22 05:22:00,57.0,53.0,29.95,WNW,302,0.0,-999.0,88,-99.99,,,-99.99,,2013-10-22 09:22:00,
2013-10-22 05:43:00,57.0,54.0,29.95,WNW,302,0.0,-999.0,89,-99.99,,,-99.99,,2013-10-22 09:43:00,
2013-10-22 05:53:00,57.0,54.0,29.95,SW,235,0.0,-999.0,89,-99.99,,,-99.99,,2013-10-22 09:53:00,
2013-10-22 06:13:00,57.0,53.0,29.95,SW,232,0.0,-999.0,88,-99.99,,,-99.99,,2013-10-22 10:13:00,
2013-10-22 06:23:00,57.0,53.0,29.96,SW,232,0.0,-999.0,88,-99.99,,,-99.99,,2013-10-22 10:23:00,
2013-10-22 06:43:00,58.0,54.0,29.96,SW,227,0.0,-999.0,88,-99.99,,,-99.99,,2013-10-22 10:43:00,
2013-10-22 06:53:00,58.0,54.0,29.96,SSE,163,0.0,-999.0,87,-99.99,,,-99.99,,2013-10-22 10:53:00,
2013-10-22 07:12:00,58.0,54.0,29.96,SW,217,0.0,-999.0,86,-99.99,,,-99.99,,2013-10-22 11:12:00,
2013-10-22 07:22:00,58.0,54.0,29.96,SW,223,0.0,-999.0,86,-99.99,,,-99.99,,2013-10-22 11:22:00,
2013-10-22 07:42:00,58.0,54.0,29.96,SW,216,0.0,-999.0,87,-99.99,,,-99.99,,2013-10-22 11:42:00,
2013-10-22 07:52:00,58.0,54.0,29.95,SW,214,0.0,-999.0,87,-99.99,,,-99.99,,2013-10-22 11:52:00,
2013-10-22 08:11:00,58.0,54.0,29.95,WSW,245,0.0,-999.0,87,-99.99,,,-99.99,,2013-10-22 12:11:00,
2013-10-22 08:22:00,58.0,54.0,29.96,SSE,165,0.0,-999.0,87,-99.99,,,-99.99,,2013-10-22 12:22:00,
2013-10-22 08:42:00,58.0,54.0,29.95,West,274,0.0,-999.0,87,-99.99,,,-99.99,,2013-10-22 12:42:00,
2013-10-22 08:52:00,58.0,54.0,29.95,West,273,0.0,-999.0,87,-99.99,,,-99.99,,2013-10-22 12:52:00,
2013-10-22 09:12:00,58.0,54.0,29.95,SW,222,0.0,-999.0,88,-99.99,,,-99.99,,2013-10-22 13:12:00,
2013-10-22 09:22:00,59.0,56.0,29.95,SSW,206,0.0,-999.0,89,-99.99,,,-99.99,,2013-10-22 13:22:00,
2013-10-22 09:42:00,59.0,56.0,29.95,West,269,0.0,-999.0,89,-99.99,,,-99.99,,2013-10-22 13:42:00,
2013-10-22 09:53:00,59.0,56.0,29.96,NW,315,0.0,-999.0,89,-99.99,,,-99.99,,2013-10-22 13:53:00,
2013-10-22 10:12:00,59.0,55.0,29.95,SSW,211,0.0,-999.0,88,-99.99,,,-99.99,,2013-10-22 14:12:00,
2013-10-22 10:21:00,60.0,56.0,29.95,WNW,289,2.0,-999.0,86,-99.99,,,-99.99,,2013-10-22 14:21:00,
2013-10-22 10:42:00,61.0,57.0,29.96,WNW,295,0.0,-999.0,86,-99.99,,,-99.99,,2013-10-22 14:42:00,
2013-10-22 10:52:00,61.0,57.0,29.96,WNW,295,0.0,-999.0,86,-99.99,,,-99.99,,2013-10-22 14:52:00,
2013-10-22 11:12:00,62.0,56.0,29.93,NW,323,0.0,-999.0,81,-99.99,,,-99.99,,2013-10-22 15:12:00,
2013-10-22 11:22:00,63.0,56.0,29.93,SW,220,1.0,-999.0,77,-99.99,,,-99.99,,2013-10-22 15:22:00,
2013-10-22 11:43:00,63.0,55.0,29.93,WSW,250,0.0,-999.0,76,-99.99,,,-99.99,,2013-10-22 15:43:00,
2013-10-22 11:54:00,64.0,56.0,29.92,SSW,200,0.0,-999.0,76,-99.99,,,-99.99,,2013-10-22 15:54:00,
2013-10-22 12:13:00,65.0,56.0,29.92,SW,224,2.0,-999.0,73,-99.99,,,-99.99,,2013-10-22 16:13:00,
2013-10-22 12:23:00,65.0,56.0,29.91,SW,221,0.0,-999.0,72,-99.99,,,-99.99,,2013-10-22 16:23:00,
2013-10-22 12:43:00,66.0,56.0,29.91,SW,231,0.0,-999.0,69,-99.99,,,-99.99,,2013-10-22 16:43:00,
2013-10-22 12:53:00,66.0,56.0,29.90,WSW,241,0.0,-999.0,70,-99.99,,,-99.99,,2013-10-22 16:53:00,
2013-10-22 13:12:00,66.0,56.0,29.90,WNW,298,0.0,-999.0,70,-99.99,,,-99.99,,2013-10-22 17:12:00,
2013-10-22 13:22:00,65.0,55.0,29.89,SW,221,0.0,-999.0,70,-99.99,,,-99.99,,2013-10-22 17:22:00,
2013-10-22 13:43:00,65.0,55.0,29.88,South,190,0.0,-999.0,69,-99.99,,,-99.99,,2013-10-22 17:43:00,
2013-10-22 13:52:00,66.0,54.0,29.88,South,180,1.0,-999.0,66,-99.99,,,-99.99,,2013-10-22 17:52:00,
2013-10-22 14:12:00,66.0,53.0,29.87,SSW,211,1.0,-999.0,63,-99.99,,,-99.99,,2013-10-22 18:12:00,
2013-10-22 14:22:00,66.0,52.0,29.86,SSW,192,2.0,-999.0,61,-99.99,,,-99.99,,2013-10-22 18:22:00,
2013-10-22 14:42:00,67.0,52.0,29.85,SSE,153,1.0,-999.0,59,-99.99,,,-99.99,,2013-10-22 18:42:00,
2013-10-22 14:52:00,67.0,51.0,29.84,SSE,167,1.0,-999.0,57,-99.99,,,-99.99,,2013-10-22 18:52:00,
2013-10-22 15:12:00,67.0,53.0,29.83,SSE,167,1.0,-999.0,60,-99.99,,,-99.99,,2013-10-22 19:12:00,
2013-10-22 15:22:00,66.0,51.0,29.83,South,177,2.0,-999.0,59,-99.99,,,-99.99,,2013-10-22 19:22:00,
2013-10-22 15:42:00,65.0,53.0,29.83,SSE,159,1.0,-999.0,64,-99.99,,,-99.99,,2013-10-22 19:42:00,
2013-10-22 15:52:00,65.0,53.0,29.83,South,183,0.0,-999.0,64,-99.99,,,-99.99,,2013-10-22 19:52:00,
2013-10-22 16:11:00,65.0,51.0,29.83,WSW,237,1.0,-999.0,60,-99.99,,,-99.99,,2013-10-22 20:11:00,
2013-10-22 16:22:00,66.0,50.0,29.82,SSW,206,2.0,-999.0,56,-99.99,,,-99.99,,2013-10-22 20:22:00,
2013-10-22 16:43:00,66.0,50.0,29.82,SSE,162,1.0,-999.0,56,-99.99,,,-99.99,,2013-10-22 20:43:00,
2013-10-22 16:52:00,66.0,50.0,29.82,SSE,151,1.0,-999.0,56,-99.99,,,-99.99,,2013-10-22 20:52:00,
2013-10-22 17:12:00,66.0,50.0,29.81,SSE,154,1.0,-999.0,56,-99.99,,,-99.99,,2013-10-22 21:12:00,
2013-10-22 17:23:00,66.0,52.0,29.81,South,182,2.0,-999.0,60,-99.99,,,-99.99,,2013-10-22 21:23:00,
2013-10-22 17:44:00,66.0,53.0,29.81,South,180,0.0,-999.0,64,-99.99,,,-99.99,,2013-10-22 21:44:00,
2013-10-22 17:54:00,66.0,55.0,29.82,SSE,153,1.0,-999.0,67,-99.99,,,-99.99,,2013-10-22 21:54:00,
2013-10-22 18:14:00,66.0,56.0,29.81,South,182,0.0,-999.0,69,-99.99,,,-99.99,,2013-10-22 22:14:00,
2013-10-22 18:24:00,65.0,55.0,29.81,SSW,209,1.0,-999.0,71,-99.99,,,-99.99,,2013-10-22 22:24:00,
2013-10-22 18:44:00,65.0,56.0,29.80,SSW,202,0.0,-999.0,73,-99.99,,,-99.99,,2013-10-22 22:44:00,
2013-10-22 18:54:00,65.0,56.0,29.80,SSW,202,0.0,-999.0,73,-99.99,,,-99.99,,2013-10-22 22:54:00,
2013-10-22 19:12:00,64.0,56.0,29.80,South,175,0.0,-999.0,74,-99.99,,,-99.99,,2013-10-22 23:12:00,
2013-10-22 19:23:00,64.0,56.0,29.81,SSW,198,0.0,-999.0,75,-99.99,,,-99.99,,2013-10-22 23:23:00,
2013-10-22 19:43:00,63.0,55.0,29.81,South,178,0.0,-999.0,76,-99.99,,,-99.99,,2013-10-22 23:43:00,
2013-10-22 19:53:00,63.0,56.0,29.81,South,182,0.0,-999.0,77,-99.99,,,-99.99,,2013-10-22 23:53:00,
2013-10-22 20:11:00,63.0,56.0,29.81,SSW,192,0.0,-999.0,79,-99.99,,,-99.99,,2013-10-23 00:11:00,
2013-10-22 20:22:00,62.0,56.0,29.81,WSW,247,0.0,-999.0,80,-99.99,,,-99.99,,2013-10-23 00:22:00,
2013-10-22 20:42:00,62.0,56.0,29.81,West,272,0.0,-999.0,81,-99.99,,,-99.99,,2013-10-23 00:42:00,
2013-10-22 20:52:00,61.0,55.0,29.81,West,275,0.0,-999.0,82,-99.99,,,-99.99,,2013-10-23 00:52:00,
2013-10-22 21:11:00,61.0,56.0,29.80,West,275,0.0,-999.0,83,-99.99,,,-99.99,,2013-10-23 01:11:00,
2013-10-22 21:23:00,60.0,55.0,29.80,West,275,0.0,-999.0,84,-99.99,,,-99.99,,2013-10-23 01:23:00,
2013-10-22 21:42:00,60.0,55.0,29.80,West,275,0.0,-999.0,85,-99.99,,,-99.99,,2013-10-23 01:42:00,
2013-10-22 21:52:00,59.0,54.0,29.81,West,275,0.0,-999.0,85,-99.99,,,-99.99,,2013-10-23 01:52:00,
2013-10-22 22:12:00,59.0,55.0,29.80,West,275,0.0,-999.0,86,-99.99,,,-99.99,,2013-10-23 02:12:00,
2013-10-22 22:22:00,59.0,55.0,29.80,West,275,0.0,-999.0,87,-99.99,,,-99.99,,2013-10-23 02:22:00,
2013-10-22 22:42:00,58.0,54.0,29.80,WNW,291,0.0,-999.0,87,-99.99,,,-99.99,,2013-10-23 02:42:00,
2013-10-22 22:53:00,58.0,54.0,29.80,WNW,287,0.0,-999.0,87,-99.99,,,-99.99,,2013-10-23 02:53:00,
2013-10-22 23:12:00,58.0,54.0,29.80,WNW,287,0.0,-999.0,86,-99.99,,,-99.99,,2013-10-23 03:12:00,
2013-10-22 23:22:00,58.0,54.0,29.80,SSW,207,0.0,-999.0,87,-99.99,,,-99.99,,2013-10-23 03:22:00,
2013-10-22 23:44:00,58.0,54.0,29.80,WSW,238,0.0,-999.0,88,-99.99,,,-99.99,,2013-10-23 03:44:00,
2013-10-22 23:55:00,57.0,53.0,29.79,West,261,0.0,-999.0,88,-99.99,,,-99.99,,2013-10-23 03:55:00,